Helicity
113 139 250 195 196 104 78 69 52 53 -3 17 69 52 53 54 63 111 112 56 158 35 55 98 59 134 64 283 656 768 573 398 441 424 483 489 514 440 432 375 362 313 313 307
81 159 186 110 64 78 102 53 62 36 31 50 33 60 41 82 65 64 91 92 51 218 147 150 123 103 176 202 593 719 690 533 417 396 401 485 571 500 479 415 406 342 329 340
139 212 89 82 56 79 101 121 116 76 33 40 62 80 29 52 82 71 57 96 107 57 136 177 202 205 269 323 583 665 664 595 448 322 356 432 483 472 435 390 452 405 373 371
200 131 60 54 102 117 93 72 36 60 67 143 73 133 51 113 78 81 80 112 170 191 134 65 167 255 349 408 644 726 678 604 465 347 369 421 541 572 499 501 490 488 426 375
216 149 98 74 61 76 85 77 79 89 81 85 123 245 88 143 126 153 93 51 93 107 102 184 124 194 221 419 688 766 733 603 507 387 377 407 463 492 489 469 475 471 435 388
77 106 82 103 95 71 65 112 159 195 202 229 196 322 333 146 171 144 121 99 76 73 154 257 236 262 160 294 649 708 669 582 496 360 340 350 411 472 492 506 527 532 492 448
138 67 113 92 80 128 195 275 290 346 428 511 242 250 346 215 199 162 127 141 116 63 374 384 456 362 311 219 470 563 533 500 437 348 308 367 389 408 461 486 536 563 531 516
201 207 89 188 180 239 251 254 416 390 345 286 197 322 357 261 143 184 158 134 204 266 368 346 328 208 254 234 329 503 432 383 437 333 245 305 345 411 431 468 550 564 583 547
424 306 125 113 112 177 101 159 208 199 207 252 271 199 220 197 172 156 130 91 303 329 259 292 288 238 128 202 320 475 409 369 375 381 282 227 298 356 439 474 523 565 578 534
297 455 322 256 164 156 136 104 182 255 370 524 390 217 323 156 261 335 364 217 327 441 452 359 361 233 327 414 412 359 387 357 379 354 334 261 340 367 464 501 530 579 583 489
-10 99 442 482 420 495 271 162 239 209 255 281 296 146 407 432 321 350 268 112 427 416 487 461 359 361 428 430 404 473 510 508 467 368 319 343 411 449 484 440 520 609 642 528
-169 -255 -129 106 189 158 179 173 50 229 295 255 -12 172 21 20 248 274 484 337 282 408 452 343 284 355 393 304 364 418 410 348 361 383 396 419 416 423 424 450 524 609 654 628
-168 -183 -187 -235 -54 79 119 125 169 -3 -95 20 -22 -8 96 123 -32 -61 276 544 541 337 293 288 237 226 229 267 283 247 257 254 271 281 319 368 376 399 438 497 536 640 644 584
-23 -155 -179 -162 -123 18 -101 -74 -56 -84 -12 13 72 49 33 73 19 -39 11 191 118 361 101 178 165 201 202 215 205 179 210 221 174 193 221 225 250 276 330 386 490 579 657 695
-68 -153 -193 -142 -72 10 -52 -121 -45 -85 -104 -79 45 -86 113 -34 32 27 -7 -28 42 105 314 191 156 202 267 224 161 160 217 245 222 209 212 200 207 230 304 353 427 512 550 597
-15 47 -4 38 -16 -95 -87 -33 -6 -12 -19 37 21 -26 46 -21 -1 24 39 33 121 5 146 162 307 122 104 119 175 115 127 113 135 168 157 170 184 206 205 260 327 382 408 433
203 151 117 77 55 38 46 17 -4 -26 -29 -50 -49 -20 24 60 96 120 107 36 86 166 203 99 140 140 230 110 107 106 104 64 52 72 99 93 138 141 155 178 197 241 288 342
91 91 94 74 27 44 72 -2 -9 6 27 26 33 1 14 69 94 145 122 156 152 163 176 255 221 204 152 69 66 85 72 74 81 77 88 118 148 132 144 150 150 166 210 249
35 73 132 131 95 75 31 74 182 230 80 132 143 105 66 55 128 135 143 128 168 146 144 121 131 85 99 40 69 74 63 80 78 72 90 144 155 144 135 142 151 176 233 269
193 156 162 122 145 61 129 101 59 64 64 161 162 170 183 170 105 126 99 133 108 142 141 52 73 79 91 101 87 44 36 62 59 48 59 167 183 178 157 154 178 208 234 256
108 124 145 41 142 231 324 169 90 60 81 51 77 107 53 106 46 73 98 230 246 234 86 96 110 60 120 128 71 61 81 123 172 205 191 162 147 145 130 136 171 215 236 268
28 53 82 51 38 87 65 74 48 54 77 84 74 103 117 232 57 163 251 299 185 110 80 81 131 150 119 76 71 154 203 195 177 147 160 157 154 158 148 164 195 219 271 300
30 16 28 -8 18 -21 -28 -29 -27 11 95 102 56 174 127 106 129 156 153 199 107 73 37 74 102 108 157 127 162 191 139 115 120 131 135 150 149 149 153 164 175 215 263 307
22 -2 -6 7 -7 -23 -49 -76 -62 -51 53 23 52 223 119 77 161 20 -24 -1 3 31 64 89 129 115 118 171 130 101 64 68 77 82 81 79 89 100 113 124 146 188 226 257
41 18 4 -4 -4 13 21 -54 -21 -25 12 67 96 215 246 132 85 -39 29 106 161 118 159 195 114 89 84 86 88 90 74 53 54 48 30 36 42 42 59 80 106 144 201 266
2 38 34 38 -13 18 -18 -23 -24 -46 -32 -37 104 163 279 201 173 124 139 139 183 174 164 135 46 46 81 81 73 52 47 31 -0 -4 26 39 33 28 27 51 62 95 138 184
Wind_Speed
51 58 59 56 56 67 75 80 93 89 86 80 76 88 81 55 50 47 47 46 43 49 42 34 34 36 35 41 47 44 43 46 42 43 42 43 43 39 36 34 33 34 34 32
67 75 62 61 64 65 66 75 83 100 84 81 103 111 106 80 72 69 62 63 59 48 47 43 41 36 40 37 46 46 44 46 50 48 46 45 44 44 40 37 35 36 36 35
80 83 64 68 74 74 78 81 89 95 86 81 96 109 120 97 94 85 78 65 59 63 53 53 50 46 46 46 46 48 46 46 48 50 47 45 43 43 44 43 40 40 38 38
82 90 84 84 90 75 91 78 89 96 102 99 79 108 128 94 100 88 84 72 68 62 61 60 53 51 51 53 49 50 48 48 48 49 50 53 54 53 51 47 43 42 41 41
94 85 76 87 90 86 105 103 106 110 114 106 96 96 105 91 100 85 73 68 65 57 66 56 55 46 46 51 50 48 48 49 49 52 53 55 57 54 50 48 47 44 44 43
101 91 86 97 97 99 94 106 102 100 104 121 111 102 100 115 100 96 81 81 80 76 61 53 44 41 48 45 45 46 45 47 48 50 54 57 59 56 54 53 51 49 46 45
94 109 100 94 109 98 87 88 101 97 97 111 101 105 94 91 102 98 100 92 87 74 47 45 43 38 32 33 40 41 42 44 47 51 54 56 58 58 57 55 54 52 51 50
95 105 96 86 90 97 85 88 96 116 116 112 87 98 95 77 100 83 84 79 64 49 42 43 43 41 42 27 39 37 40 41 41 47 51 51 54 58 57 55 55 55 55 52
85 90 80 77 68 73 92 102 90 108 109 114 106 107 93 82 78 90 91 79 58 52 45 39 38 42 38 41 37 39 36 36 37 40 46 50 51 53 55 54 54 54 53 52
62 87 74 82 74 67 85 72 77 89 100 105 85 87 87 92 93 94 97 81 59 51 46 40 37 33 31 27 25 30 31 33 33 34 37 44 49 49 51 50 53 54 53 51
65 61 80 79 58 70 66 80 79 65 62 64 62 69 65 77 90 92 101 85 53 50 48 44 43 36 36 31 26 26 26 27 27 29 33 39 44 44 46 48 49 52 51 50
50 63 80 79 75 75 55 54 49 65 78 76 83 85 43 69 78 79 75 60 52 48 47 47 39 34 31 30 31 31 28 29 29 27 30 33 37 40 44 46 44 44 44 43
59 67 85 91 63 44 56 61 64 63 64 74 79 81 83 83 82 70 74 61 62 66 37 40 37 39 29 27 25 26 25 23 25 25 29 32 34 37 42 43 42 40 39 40
59 76 85 102 88 76 93 97 85 79 96 93 99 122 117 106 102 86 72 56 59 64 43 39 36 31 27 26 23 22 22 21 21 21 22 26 30 33 36 37 38 39 37 38
65 81 80 81 83 90 102 110 101 95 96 106 120 109 127 106 97 80 58 45 55 52 48 42 29 29 26 24 24 21 18 17 17 18 19 21 24 26 29 30 32 32 33 35
57 75 73 85 92 104 110 104 103 100 99 98 108 113 104 101 93 82 70 56 48 39 42 35 40 30 27 25 22 18 18 15 14 18 19 15 16 25 29 28 25 30 31 32
67 73 87 107 101 110 122 108 107 113 104 101 106 107 98 90 85 79 59 60 54 41 29 34 32 33 31 25 24 16 15 10 9 7 9 13 20 22 24 22 18 16 18 22
70 74 79 98 100 116 106 96 99 106 106 98 99 97 91 90 83 74 57 56 52 41 43 42 32 27 20 20 25 21 16 11 13 7 7 6 11 16 21 21 24 27 29 30
60 73 81 88 100 102 106 88 79 87 106 82 80 87 88 87 74 76 59 55 39 44 29 28 24 24 22 14 16 19 27 23 11 10 11 12 14 17 17 19 17 19 18 20
52 65 74 79 81 89 60 69 68 68 95 66 77 85 87 81 71 73 55 46 39 36 17 16 18 16 15 10 20 18 23 18 12 13 12 3 8 9 13 15 18 20 22 23
59 58 64 67 62 61 50 61 60 56 71 77 74 80 86 87 58 51 43 35 20 14 14 12 9 12 14 15 16 18 17 16 19 23 23 11 11 11 14 16 18 17 19 24
35 40 43 47 51 48 52 51 54 59 66 68 72 77 88 82 20 23 14 12 12 9 10 14 9 14 17 15 16 13 17 21 23 28 29 26 22 20 18 19 21 20 21 26
37 35 44 45 52 64 53 51 54 58 64 66 70 66 60 35 6 14 10 12 12 8 7 8 10 11 16 18 18 17 25 27 25 26 28 29 27 24 23 24 28 30 29 30
46 43 46 53 55 64 47 51 56 58 62 65 60 61 53 44 17 12 9 10 6 7 10 5 5 10 15 19 19 20 22 21 22 24 27 29 28 28 26 27 23 21 21 26
58 60 64 65 63 59 54 54 58 61 61 58 57 55 47 32 31 16 7 8 9 9 11 4 8 11 10 13 15 19 20 21 23 25 27 31 32 30 28 28 25 26 26 23
59 56 61 68 64 66 67 63 63 60 58 51 51 52 45 39 40 21 15 13 7 9 13 12 11 8 8 12 15 19 21 23 23 25 29 32 32 33 34 34 33 32 30 26
Wind_Direction
283 279 266 274 273 280 283 284 285 287 289 293 285 285 284 283 277 271 274 272 267 279 280 265 259 233 244 220 213 210 213 217 220 216 218 219 226 223 226 229 221 214 219 219
282 263 272 278 277 276 272 279 282 286 289 290 284 282 278 278 280 282 280 280 282 266 268 267 269 257 234 236 222 216 218 220 221 231 227 225 224 224 230 230 225 217 217 219
275 261 281 273 277 275 275 275 283 285 289 287 287 284 278 279 279 280 279 278 274 278 268 256 250 253 242 237 227 223 222 227 225 231 239 236 235 234 231 226 225 217 217 218
276 277 276 276 274 271 277 279 283 284 284 283 285 283 278 281 280 280 280 275 271 267 265 265 255 251 245 233 227 227 224 228 230 230 235 232 231 231 236 232 231 227 224 223
267 276 273 274 272 278 277 284 284 283 281 284 281 279 274 285 280 280 281 283 282 277 286 257 258 252 250 234 232 230 228 231 230 232 235 234 237 241 239 239 236 233 234 232
269 275 274 275 280 277 281 284 284 282 279 275 272 272 278 278 277 284 284 288 286 283 281 273 271 267 257 230 229 232 232 234 232 231 237 236 238 239 241 237 237 238 238 237
276 272 271 269 274 279 277 279 279 276 271 272 275 275 272 276 278 281 285 288 285 276 269 270 270 276 276 219 218 228 232 236 236 233 234 236 237 238 239 238 239 240 241 241
282 278 271 267 262 269 271 267 271 276 276 279 277 274 275 275 281 280 280 283 291 285 275 271 270 273 270 248 223 232 234 239 238 234 232 237 237 239 242 238 242 244 245 245
288 280 282 278 269 260 266 263 266 274 276 279 276 278 281 277 270 281 285 283 274 275 271 268 269 276 268 262 240 234 238 241 239 233 235 234 244 237 240 242 243 245 247 249
296 290 292 288 283 276 258 264 265 265 274 275 278 279 284 291 291 288 287 273 261 263 265 265 268 270 276 279 249 241 247 245 248 240 232 236 245 241 246 245 245 246 250 250
296 295 292 299 280 287 283 271 276 274 282 286 285 289 305 304 301 294 289 278 260 260 263 267 268 267 273 271 261 259 255 252 249 245 242 245 247 244 245 250 248 249 253 254
290 293 289 277 287 290 285 285 284 277 278 284 291 287 317 312 307 301 296 292 284 273 272 272 269 267 267 262 260 260 262 261 257 254 252 250 250 249 250 255 253 249 251 253
286 285 286 278 288 297 283 281 280 280 286 287 287 282 290 306 297 308 298 290 297 298 268 267 269 274 266 262 257 260 260 259 259 258 254 256 257 255 257 255 254 252 252 254
286 278 277 275 279 283 275 274 281 283 284 285 280 284 285 291 287 292 299 315 299 309 288 262 267 265 265 265 261 258 262 268 260 260 258 259 260 259 257 255 253 249 250 253
282 280 278 279 279 278 277 277 285 289 286 284 286 285 281 285 289 292 303 301 302 298 301 300 267 264 267 264 264 269 271 273 272 269 268 267 269 266 263 259 256 254 250 252
281 286 283 281 282 280 280 282 284 286 288 289 286 284 282 285 286 285 286 285 285 292 287 293 304 294 269 263 274 279 274 267 270 270 277 264 266 263 263 258 251 258 260 261
287 288 287 283 286 286 279 283 286 285 283 283 282 284 286 287 282 280 284 280 282 280 282 289 293 303 292 296 295 292 297 278 295 296 299 282 279 278 279 278 271 256 244 251
286 288 288 286 287 280 285 289 287 282 280 283 282 285 286 288 284 276 283 280 278 277 267 270 274 283 299 314 300 300 293 291 287 323 324 308 298 289 286 284 281 277 274 267
283 284 285 285 283 288 288 293 292 289 282 292 295 293 296 293 285 274 272 270 270 279 270 272 279 282 287 327 323 308 291 290 328 328 305 293 297 301 296 290 279 281 271 269
297 290 279 283 284 286 299 307 306 297 281 305 301 296 297 295 281 272 272 259 260 270 255 273 287 296 303 338 309 310 299 305 316 326 321 339 319 313 304 294 287 283 275 270
290 294 284 292 285 285 309 314 315 291 289 300 306 301 299 286 281 285 275 254 236 229 255 276 306 307 317 322 320 313 315 332 333 334 326 327 323 319 313 310 304 289 273 275
305 303 298 299 293 296 318 313 309 306 302 299 300 300 297 277 264 285 247 208 214 241 262 280 304 310 324 327 320 328 325 323 332 319 320 327 327 330 327 319 311 300 289 280
309 316 307 301 292 289 298 311 313 302 296 298 295 290 291 294 251 162 239 248 251 249 264 288 307 331 329 328 312 305 307 307 322 332 334 334 342 342 334 326 316 308 298 288
314 316 310 304 293 290 301 307 307 294 294 299 294 290 291 295 309 138 183 213 268 287 286 301 12 320 305 296 295 299 306 329 356 352 343 347 350 349 350 349 344 331 322 308
307 309 301 293 293 290 299 295 300 298 293 299 303 293 288 278 240 275 312 352 22 347 329 0 298 290 285 288 296 309 326 347 359 354 357 355 352 3 9 9 2 350 343 328
304 311 302 289 292 290 286 290 288 283 289 294 292 292 287 277 281 318 333 337 328 297 289 293 298 284 294 305 319 325 334 346 13 19 6 348 351 351 358 2 357 352 2 347